Change the Weather History Date:

Saturday, February 18, 2012

  Actual Average Record
Temperature  
Mean Temperature 51 °F 50 °F  
Max Temperature 57 °F 63 °F 78 °F (2000)
Min Temperature 44 °F 38 °F 23 °F (2015)
Degree Days  
Heating Degree Days 14 15  
Month to date heating degree days 237 292  
Since 1 July heating degree days 1515 1784  
Growing Degree Days 1 (Base 50)    
Moisture  
Dew Point 52 °F    
Average Humidity 90    
Maximum Humidity 100    
Minimum Humidity 80    
Precipitation  
Precipitation 2.80 in 0.17 in 2.80 in (2012)
Month to date precipitation 4.53 2.87  
Year to date precipitation 9.03 7.42  
Snow  
Snow 0.00 in - - ()
Month to date snowfall 0.0  
Since 1 July snowfall 0.0  
Snow Depth -    
Sea Level Pressure  
Sea Level Pressure 29.88 in    
Wind  
Wind Speed 7 mph (NE)    
Max Wind Speed 22 mph    
Max Gust Speed 36 mph    
Visibility 5 miles    
Events Rain , Thunderstorm    
T = Trace of Precipitation, MM = Missing Value Source: NWS Daily Summary

Daily Weather History Graph

Daily Weather History Graph

Search for Another Location

Airport or City:

Trip Planner

Search our weather history database for the weather conditions in past years. The results will help you decide how hot, cold, wet, or windy it might be!

Date:

Astronomy

Feb. 18, 2012 Rise Set
Actual Time 6:23 AM CST 5:32 PM CST
Civil Twilight 5:58 AM CST 5:57 PM CST
Nautical Twilight 5:30 AM CST 6:26 PM CST
Astronomical Twilight 5:01 AM CST 6:54 PM CST
Moon 3:53 AM CST (2/18) 2:37 PM CST (2/18)
Length of Visible Light 11h 58m
Length of Day
11h 09m
Waning Crescent, 11% of the Moon is Illuminated
Feb 18
Waning Crescent
Feb 21
New
Feb 29
First Quarter
Mar 8
Full
Mar 14
Last Quarter

Hourly Weather History & Observations

Time (CST) Temp. Dew Point Humidity Pressure Visibility Wind Dir Wind Speed Gust Speed Precip Events Conditions
12:53 AM 46.0 °F 45.0 °F 96% 30.04 in 10.0 mi Calm Calm - N/A   Clear
1:53 AM 45.0 °F 44.1 °F 97% 30.01 in 10.0 mi Calm Calm - N/A   Clear
2:53 AM 45.0 °F 44.1 °F 97% 29.99 in 10.0 mi Calm Calm - N/A   Clear
3:53 AM 46.0 °F 45.0 °F 96% 30.02 in 9.0 mi Calm Calm - N/A   Clear
4:53 AM 46.9 °F 45.0 °F 93% 30.02 in 10.0 mi Calm Calm - N/A   Clear
6:53 AM 48.9 °F 46.9 °F 93% 30.00 in 10.0 mi ENE 3.5 mph - N/A   Scattered Clouds
7:53 AM 53.1 °F 48.9 °F 86% 30.00 in 10.0 mi ESE 3.5 mph - 0.00 in   Overcast
8:53 AM 54.0 °F 50.0 °F 86% 29.99 in 10.0 mi East 5.8 mph - 0.00 in   Overcast
9:53 AM 57.0 °F 51.1 °F 81% 29.99 in 10.0 mi NE 4.6 mph - 0.00 in   Overcast
10:53 AM 57.0 °F 53.1 °F 87% 29.98 in 9.0 mi NE 3.5 mph - 0.01 in Rain Light Rain
11:11 AM 55.4 °F 53.6 °F 94% 29.97 in 7.0 mi NNE 5.8 mph - 0.01 in Rain Light Rain
11:24 AM 55.4 °F 53.6 °F 94% 29.97 in 6.0 mi NE 4.6 mph - 0.02 in Rain Light Rain
11:53 AM 55.9 °F 54.0 °F 93% 29.93 in 5.0 mi NNE 6.9 mph - 0.05 in Rain Light Rain
12:50 PM 55.4 °F 53.6 °F 94% 29.89 in 2.0 mi NE 5.8 mph - 0.07 in Rain Rain
12:53 PM 55.0 °F 54.0 °F 96% 29.90 in 2.0 mi NE 6.9 mph - 0.07 in Rain Rain
1:14 PM 55.4 °F 53.6 °F 94% 29.91 in 1.5 mi Calm Calm - 0.12 in Rain Heavy Rain
1:22 PM 55.4 °F 53.6 °F 94% 29.90 in 1.5 mi NE 5.8 mph - 0.18 in Rain Heavy Rain
1:29 PM 55.4 °F 53.6 °F 94% 29.89 in 1.2 mi ENE 5.8 mph - 0.22 in Rain Heavy Rain
1:39 PM 55.4 °F 53.6 °F 94% 29.89 in 1.8 mi NE 5.8 mph - 0.26 in Rain Rain
1:50 PM 55.4 °F 53.6 °F 94% 29.89 in 1.8 mi NNE 5.8 mph - 0.31 in Rain Rain
1:51 PM 55.0 °F 54.0 °F 96% 29.88 in 1.8 mi NNE 5.8 mph - 0.32 in Rain Rain
2:21 PM 55.4 °F 55.4 °F 100% 29.86 in 1.8 mi ENE 6.9 mph - 0.16 in Rain Heavy Rain
2:32 PM 55.4 °F 55.4 °F 100% 29.87 in 2.0 mi ENE 5.8 mph - 0.22 in Rain Heavy Rain
2:40 PM 55.4 °F 55.4 °F 100% 29.88 in 1.8 mi NNE 3.5 mph - 0.29 in Rain Heavy Rain
2:53 PM 55.0 °F 55.0 °F 100% 29.86 in 2.5 mi ENE 6.9 mph - 0.35 in Rain Rain
3:02 PM 55.4 °F 55.4 °F 100% 29.85 in 4.0 mi NE 8.1 mph - 0.02 in Rain Rain
3:21 PM 55.4 °F 55.4 °F 100% 29.85 in 1.8 mi NE 9.2 mph - 0.15 in Rain Heavy Rain
3:28 PM 55.4 °F 55.4 °F 100% 29.84 in 1.8 mi NE 9.2 mph - 0.20 in Rain Heavy Rain
3:37 PM 55.4 °F 55.4 °F 100% 29.83 in 2.5 mi ENE 8.1 mph - 0.26 in Rain Heavy Rain
3:53 PM 55.9 °F 55.0 °F 97% 29.83 in 2.5 mi NE 9.2 mph - 0.34 in Rain Heavy Rain
4:32 PM 55.4 °F 55.4 °F 100% 29.81 in 1.5 mi NE 11.5 mph - 0.27 in Rain Heavy Rain
4:39 PM 55.4 °F 55.4 °F 100% 29.79 in 1.8 mi NE 15.0 mph - 0.32 in Rain , Thunderstorm Heavy Thunderstorms and Rain
4:44 PM 55.4 °F 55.4 °F 100% 29.80 in 3.0 mi NE 13.8 mph - 0.33 in Rain , Thunderstorm Thunderstorms and Rain
4:53 PM 55.9 °F 55.0 °F 97% 29.78 in 4.0 mi NE 13.8 mph - 0.38 in Rain Heavy Rain
5:06 PM 55.4 °F 55.4 °F 100% 29.78 in 2.5 mi NNE 16.1 mph - 0.10 in Rain Heavy Rain
5:32 PM 55.4 °F 53.6 °F 94% 29.82 in 1.8 mi North 16.1 mph - 0.43 in Rain Heavy Rain
5:53 PM 55.0 °F 54.0 °F 96% 29.84 in 2.5 mi North 15.0 mph 20.7 mph 0.64 in Rain Heavy Rain
5:57 PM 55.4 °F 53.6 °F 94% 29.84 in 3.0 mi North 11.5 mph 20.7 mph 0.03 in Rain Heavy Rain
6:05 PM 55.4 °F 53.6 °F 94% 29.86 in 2.5 mi North 16.1 mph 21.9 mph 0.11 in Rain Heavy Rain
6:19 PM 53.6 °F 53.6 °F 100% 29.88 in 3.0 mi North 11.5 mph - 0.24 in Rain Heavy Rain
6:28 PM 53.6 °F 53.6 °F 100% 29.85 in 2.5 mi ENE 13.8 mph 24.2 mph 0.35 in Rain Heavy Rain
6:44 PM 53.6 °F 53.6 °F 100% 29.82 in 4.0 mi NE 17.3 mph - 0.44 in Rain Rain
6:51 PM 53.6 °F 53.6 °F 100% 29.79 in 5.0 mi NE 19.6 mph 28.8 mph 0.47 in Rain Rain
6:53 PM 54.0 °F 53.1 °F 97% 29.79 in 6.0 mi NE 17.3 mph 28.8 mph 0.47 in Rain Rain
7:04 PM 53.6 °F 53.6 °F 100% 29.78 in 7.0 mi ENE 13.8 mph 24.2 mph 0.03 in Rain Rain
7:53 PM 54.0 °F 51.1 °F 90% 29.80 in 10.0 mi NE 12.7 mph 20.7 mph 0.04 in   Mostly Cloudy
8:53 PM 54.0 °F 52.0 °F 93% 29.84 in 10.0 mi ENE 4.6 mph - 0.01 in Rain Light Rain
9:27 PM 53.6 °F 51.8 °F 94% 29.90 in 8.0 mi NW 4.6 mph - 0.03 in Rain Light Rain
9:53 PM 53.1 °F 52.0 °F 96% 29.90 in 7.0 mi NNW 5.8 mph - 0.09 in Rain Rain
10:01 PM 53.6 °F 51.8 °F 94% 29.90 in 8.0 mi North 5.8 mph - 0.00 in Rain Light Rain
10:17 PM 53.6 °F 51.8 °F 94% 29.88 in 10.0 mi NE 8.1 mph - 0.01 in Rain Light Rain
10:30 PM 53.6 °F 51.8 °F 94% 29.88 in 10.0 mi ENE 6.9 mph - 0.02 in Rain Light Rain
10:53 PM 52.0 °F 51.1 °F 97% 29.81 in 10.0 mi ENE 12.7 mph 19.6 mph 0.02 in Rain Light Rain
11:39 PM 51.8 °F 50.0 °F 94% 29.78 in 10.0 mi East 10.4 mph 18.4 mph 0.01 in   Overcast
11:53 PM 51.1 °F 48.9 °F 92% 29.76 in 10.0 mi East 11.5 mph 17.3 mph 0.01 in   Overcast